Station Historical Data
Daily Summary for September 28, 2017 Units:  English    Metric   Both
« Previous Day
Next Day »
Daily Weekly Monthly Yearly Custom
  High: Low: Average:
Temperature: 90.9 °F 65.2 °F 76.4 °F
Dew Point: 68.8 °F 62.7 °F 65.8 °F
Humidity: 92% 43% 72%
Wind Speed: 8.0mph 1.0mph 4.4mph
Wind Gust: 8.0mph - -
Wind- - WSW
Pressure: 29.98 in 29.90 in -
Precipitation: 0.00 in    
Historical Graphs
 
 
Tabular Data for September 28, 2017
Time Temperature Dew Point Pressure Wind Wind Speed Wind Gust Humidity Rainfall Rate (Hourly) Conditions
00:00 73.0 °F 66.1 °F 29.93 in NW 5.0 mph 5.0 mph 79% 0.00 in CLR
00:05 72.9 °F 66.0 °F 29.93 in NW 5.0 mph 5.0 mph 79% 0.00 in CLR
00:10 72.8 °F 65.9 °F 29.93 in NW 5.0 mph 5.0 mph 79% 0.00 in CLR
00:15 72.7 °F 65.8 °F 29.93 in NW 3.0 mph 5.0 mph 79% 0.00 in CLR
00:20 72.6 °F 65.7 °F 29.93 in NW 3.0 mph 3.0 mph 79% 0.00 in CLR
00:25 72.5 °F 65.6 °F 29.93 in NW 3.0 mph 3.0 mph 79% 0.00 in CLR
00:30 72.4 °F 65.9 °F 29.93 in NW 3.0 mph 3.0 mph 80% 0.00 in CLR
00:40 72.2 °F 65.7 °F 29.93 in NW 3.0 mph 3.0 mph 80% 0.00 in CLR
00:45 72.1 °F 65.6 °F 29.93 in NW 3.0 mph 3.0 mph 80% 0.00 in CLR
00:50 72.0 °F 65.8 °F 29.93 in NW 3.0 mph 3.0 mph 81% 0.00 in CLR
00:55 72.0 °F 65.8 °F 29.93 in NW 3.0 mph 3.0 mph 81% 0.00 in CLR
01:00 71.9 °F 65.7 °F 29.93 in NW 3.0 mph 3.0 mph 81% 0.00 in CLR
01:05 71.7 °F 65.6 °F 29.93 in NW 3.0 mph 3.0 mph 81% 0.00 in CLR
01:15 71.6 °F 65.8 °F 29.93 in NW 3.0 mph 3.0 mph 82% 0.00 in CLR
01:20 71.5 °F 65.7 °F 29.93 in NW 3.0 mph 3.0 mph 82% 0.00 in CLR
01:25 71.4 °F 65.6 °F 29.93 in WNW 3.0 mph 3.0 mph 82% 0.00 in CLR
01:30 71.3 °F 65.5 °F 29.92 in West 3.0 mph 3.0 mph 82% 0.00 in CLR
01:40 71.3 °F 65.5 °F 29.93 in West 3.0 mph 3.0 mph 82% 0.00 in CLR
01:45 71.4 °F 65.6 °F 29.92 in West 3.0 mph 3.0 mph 82% 0.00 in CLR
01:50 71.5 °F 65.7 °F 29.93 in West 3.0 mph 3.0 mph 82% 0.00 in CLR
01:55 71.6 °F 65.8 °F 29.92 in West 3.0 mph 3.0 mph 82% 0.00 in CLR
02:00 71.5 °F 65.7 °F 29.93 in West 3.0 mph 3.0 mph 82% 0.00 in CLR
02:05 71.4 °F 65.6 °F 29.92 in West 3.0 mph 3.0 mph 82% 0.00 in CLR
02:10 71.3 °F 65.5 °F 29.93 in West 3.0 mph 3.0 mph 82% 0.00 in CLR
02:15 71.2 °F 65.8 °F 29.93 in West 6.0 mph 6.0 mph 83% 0.00 in CLR
02:20 71.1 °F 65.7 °F 29.93 in West 6.0 mph 6.0 mph 83% 0.00 in CLR
02:25 71.0 °F 65.6 °F 29.93 in West 6.0 mph 6.0 mph 83% 0.00 in CLR
02:30 71.0 °F 65.6 °F 29.93 in West 6.0 mph 6.0 mph 83% 0.00 in CLR
02:35 70.9 °F 65.5 °F 29.93 in West 6.0 mph 6.0 mph 83% 0.00 in CLR
02:40 70.9 °F 65.5 °F 29.93 in West 6.0 mph 6.0 mph 83% 0.00 in CLR
02:45 70.8 °F 65.4 °F 29.93 in West 6.0 mph 6.0 mph 83% 0.00 in CLR
02:50 70.7 °F 65.3 °F 29.93 in West 6.0 mph 6.0 mph 83% 0.00 in CLR
02:55 70.7 °F 65.6 °F 29.93 in West 6.0 mph 6.0 mph 84% 0.00 in CLR
03:00 70.6 °F 65.5 °F 29.93 in West 6.0 mph 6.0 mph 84% 0.00 in CLR
03:05 70.6 °F 65.5 °F 29.93 in West 6.0 mph 6.0 mph 84% 0.00 in CLR
03:10 70.5 °F 65.4 °F 29.93 in West 6.0 mph 6.0 mph 84% 0.00 in CLR
03:15 70.1 °F 65.0 °F 29.93 in WSW 1.0 mph 6.0 mph 84% 0.00 in CLR
03:20 69.6 °F 64.9 °F 29.93 in WSW 1.0 mph 1.0 mph 85% 0.00 in CLR
03:25 69.3 °F 64.9 °F 29.93 in WSW 1.0 mph 1.0 mph 86% 0.00 in CLR
03:30 69.0 °F 64.6 °F 29.93 in WSW 1.0 mph 1.0 mph 86% 0.00 in CLR
03:35 68.8 °F 64.8 °F 29.92 in WSW 1.0 mph 1.0 mph 87% 0.00 in CLR
03:40 68.6 °F 64.6 °F 29.92 in WSW 1.0 mph 1.0 mph 87% 0.00 in CLR
03:45 68.5 °F 64.8 °F 29.93 in WSW 1.0 mph 1.0 mph 88% 0.00 in CLR
03:50 68.4 °F 64.7 °F 29.93 in WSW 1.0 mph 1.0 mph 88% 0.00 in CLR
03:55 68.3 °F 64.6 °F 29.92 in WSW 1.0 mph 1.0 mph 88% 0.00 in CLR
04:00 68.1 °F 64.4 °F 29.93 in WSW 1.0 mph 1.0 mph 88% 0.00 in CLR
04:05 67.9 °F 64.2 °F 29.92 in WSW 1.0 mph 1.0 mph 88% 0.00 in CLR
04:10 67.8 °F 64.4 °F 29.92 in WSW 1.0 mph 1.0 mph 89% 0.00 in CLR
04:15 67.7 °F 64.3 °F 29.92 in WSW 2.0 mph 2.0 mph 89% 0.00 in CLR
04:20 67.6 °F 64.2 °F 29.92 in West 2.0 mph 2.0 mph 89% 0.00 in CLR
04:25 67.5 °F 64.1 °F 29.92 in West 2.0 mph 2.0 mph 89% 0.00 in CLR
04:30 67.4 °F 64.1 °F 29.93 in West 2.0 mph 2.0 mph 89% 0.00 in CLR
04:35 67.4 °F 64.0 °F 29.92 in West 2.0 mph 2.0 mph 89% 0.00 in CLR
04:40 67.3 °F 64.3 °F 29.93 in West 2.0 mph 2.0 mph 90% 0.00 in CLR
04:45 67.2 °F 64.2 °F 29.92 in West 2.0 mph 2.0 mph 90% 0.00 in CLR
04:50 67.1 °F 64.1 °F 29.92 in West 2.0 mph 2.0 mph 90% 0.00 in CLR
04:55 67.0 °F 64.0 °F 29.92 in West 2.0 mph 2.0 mph 90% 0.00 in CLR
05:00 66.9 °F 63.9 °F 29.93 in West 2.0 mph 2.0 mph 90% 0.00 in CLR
05:05 66.8 °F 63.8 °F 29.93 in West 2.0 mph 2.0 mph 90% 0.00 in CLR
05:10 66.8 °F 63.8 °F 29.93 in West 2.0 mph 2.0 mph 90% 0.00 in CLR
05:15 66.7 °F 63.7 °F 29.93 in WSW 3.0 mph 3.0 mph 90% 0.00 in CLR
05:20 66.7 °F 63.7 °F 29.93 in WSW 3.0 mph 3.0 mph 90% 0.00 in CLR
05:25 66.6 °F 63.9 °F 29.93 in WSW 3.0 mph 3.0 mph 91% 0.00 in CLR
05:30 66.5 °F 63.8 °F 29.93 in WSW 3.0 mph 3.0 mph 91% 0.00 in CLR
05:40 66.4 °F 63.7 °F 29.93 in WSW 3.0 mph 3.0 mph 91% 0.00 in CLR
05:45 66.4 °F 63.7 °F 29.93 in WSW 3.0 mph 3.0 mph 91% 0.00 in CLR
05:50 66.3 °F 63.6 °F 29.93 in WSW 3.0 mph 3.0 mph 91% 0.00 in CLR
05:55 66.3 °F 63.6 °F 29.94 in WSW 3.0 mph 3.0 mph 91% 0.00 in CLR
06:00 66.6 °F 64.2 °F 29.94 in WSW 3.0 mph 3.0 mph 92% 0.00 in CLR
06:05 66.9 °F 64.2 °F 29.94 in WSW 3.0 mph 3.0 mph 91% 0.00 in CLR
06:10 66.8 °F 63.8 °F 29.94 in WSW 3.0 mph 3.0 mph 90% 0.00 in CLR
06:15 66.6 °F 63.6 °F 29.94 in West 5.0 mph 5.0 mph 90% 0.00 in CLR
06:20 66.5 °F 63.4 °F 29.94 in WNW 5.0 mph 5.0 mph 90% 0.00 in CLR
06:25 66.3 °F 63.3 °F 29.94 in WNW 5.0 mph 5.0 mph 90% 0.00 in CLR
06:30 66.2 °F 63.5 °F 29.94 in WNW 5.0 mph 5.0 mph 91% 0.00 in CLR
06:35 66.1 °F 63.4 °F 29.95 in WNW 5.0 mph 5.0 mph 91% 0.00 in CLR
06:40 66.0 °F 63.3 °F 29.94 in WNW 5.0 mph 5.0 mph 91% 0.00 in CLR
06:45 66.0 °F 63.3 °F 29.94 in WNW 5.0 mph 5.0 mph 91% 0.00 in CLR
06:50 65.9 °F 63.2 °F 29.94 in WNW 5.0 mph 5.0 mph 91% 0.00 in CLR
06:55 65.8 °F 63.1 °F 29.94 in WNW 5.0 mph 5.0 mph 91% 0.00 in CLR
07:00 65.7 °F 63.0 °F 29.94 in WNW 5.0 mph 5.0 mph 91% 0.00 in CLR
07:05 65.6 °F 62.9 °F 29.94 in WNW 5.0 mph 5.0 mph 91% 0.00 in CLR
07:10 65.5 °F 62.8 °F 29.94 in WNW 5.0 mph 5.0 mph 91% 0.00 in CLR
07:15 65.5 °F 62.8 °F 29.94 in WNW 5.0 mph 5.0 mph 91% 0.00 in FEW
07:20 65.4 °F 62.7 °F 29.95 in WNW 5.0 mph 5.0 mph 91% 0.00 in FEW
07:25 65.4 °F 63.0 °F 29.95 in WNW 5.0 mph 5.0 mph 92% 0.00 in FEW
07:30 65.3 °F 62.9 °F 29.95 in WNW 5.0 mph 5.0 mph 92% 0.00 in FEW
07:40 65.3 °F 62.9 °F 29.95 in WNW 5.0 mph 5.0 mph 92% 0.00 in FEW
07:45 65.2 °F 62.8 °F 29.95 in WNW 5.0 mph 5.0 mph 92% 0.00 in FEW
07:50 65.2 °F 62.8 °F 29.95 in WNW 5.0 mph 5.0 mph 92% 0.00 in FEW
07:55 65.3 °F 62.9 °F 29.95 in WNW 5.0 mph 5.0 mph 92% 0.00 in FEW
08:00 65.4 °F 63.0 °F 29.95 in WNW 5.0 mph 5.0 mph 92% 0.00 in FEW
08:05 65.4 °F 63.0 °F 29.95 in WNW 5.0 mph 5.0 mph 92% 0.00 in FEW
08:15 65.7 °F 63.3 °F 29.96 in WNW 2.0 mph 5.0 mph 92% 0.00 in FEW
08:20 65.8 °F 63.4 °F 29.96 in West 2.0 mph 2.0 mph 92% 0.00 in FEW
08:25 66.0 °F 63.6 °F 29.96 in West 2.0 mph 2.0 mph 92% 0.00 in FEW
08:30 66.3 °F 63.9 °F 29.96 in West 2.0 mph 2.0 mph 92% 0.00 in FEW
08:35 66.6 °F 64.2 °F 29.96 in West 2.0 mph 2.0 mph 92% 0.00 in FEW
08:40 66.9 °F 64.5 °F 29.96 in West 2.0 mph 2.0 mph 92% 0.00 in FEW
08:45 67.2 °F 64.8 °F 29.96 in West 2.0 mph 2.0 mph 92% 0.00 in FEW
08:50 67.6 °F 64.9 °F 29.96 in West 2.0 mph 2.0 mph 91% 0.00 in FEW
08:55 67.9 °F 65.2 °F 29.96 in West 2.0 mph 2.0 mph 91% 0.00 in FEW
09:00 68.2 °F 65.5 °F 29.96 in West 2.0 mph 2.0 mph 91% 0.00 in FEW
09:05 68.5 °F 65.8 °F 29.97 in West 2.0 mph 2.0 mph 91% 0.00 in FEW
09:10 68.8 °F 65.8 °F 29.97 in West 2.0 mph 2.0 mph 90% 0.00 in FEW
09:15 69.1 °F 65.8 °F 29.97 in West 2.0 mph 2.0 mph 89% 0.00 in FEW
09:20 69.6 °F 65.5 °F 29.97 in West 2.0 mph 2.0 mph 87% 0.00 in FEW
09:25 70.2 °F 65.8 °F 29.97 in West 2.0 mph 2.0 mph 86% 0.00 in FEW
09:30 70.9 °F 65.8 °F 29.97 in West 2.0 mph 2.0 mph 84% 0.00 in FEW
09:35 71.5 °F 66.4 °F 29.97 in West 2.0 mph 2.0 mph 84% 0.00 in FEW
09:40 71.8 °F 66.7 °F 29.97 in West 2.0 mph 2.0 mph 84% 0.00 in FEW
09:45 72.3 °F 66.5 °F 29.97 in West 2.0 mph 2.0 mph 82% 0.00 in FEW
09:50 72.7 °F 66.9 °F 29.97 in West 2.0 mph 2.0 mph 82% 0.00 in FEW
10:00 73.5 °F 67.3 °F 29.97 in West 2.0 mph 2.0 mph 81% 0.00 in FEW
10:05 74.0 °F 67.1 °F 29.98 in West 2.0 mph 2.0 mph 79% 0.00 in FEW
10:10 74.6 °F 67.6 °F 29.98 in West 2.0 mph 2.0 mph 79% 0.00 in FEW
10:15 75.1 °F 67.7 °F 29.97 in NNW 2.0 mph 2.0 mph 78% 0.00 in FEW
10:20 75.5 °F 67.4 °F 29.98 in North 2.0 mph 2.0 mph 76% 0.00 in FEW
10:25 76.0 °F 67.9 °F 29.98 in North 2.0 mph 2.0 mph 76% 0.00 in FEW
10:35 77.1 °F 68.1 °F 29.98 in North 2.0 mph 2.0 mph 74% 0.00 in FEW
10:40 77.7 °F 67.9 °F 29.98 in North 2.0 mph 2.0 mph 72% 0.00 in FEW
10:45 78.4 °F 67.4 °F 29.98 in North 2.0 mph 2.0 mph 69% 0.00 in FEW
10:50 79.3 °F 67.9 °F 29.98 in North 2.0 mph 2.0 mph 68% 0.00 in FEW
10:55 80.3 °F 68.4 °F 29.98 in North 2.0 mph 2.0 mph 67% 0.00 in FEW
11:00 81.0 °F 68.1 °F 29.98 in North 2.0 mph 2.0 mph 65% 0.00 in FEW
11:05 81.4 °F 67.1 °F 29.98 in North 2.0 mph 2.0 mph 62% 0.00 in FEW
11:10 81.9 °F 67.6 °F 29.98 in North 2.0 mph 2.0 mph 62% 0.00 in FEW
11:15 82.0 °F 67.7 °F 29.97 in NNE 5.0 mph 5.0 mph 62% 0.00 in FEW
11:20 82.9 °F 66.6 °F 29.97 in NNE 5.0 mph 5.0 mph 58% 0.00 in FEW
11:25 83.4 °F 67.1 °F 29.97 in NNE 5.0 mph 5.0 mph 58% 0.00 in FEW
11:30 84.2 °F 67.8 °F 29.97 in NNE 5.0 mph 5.0 mph 58% 0.00 in FEW
11:40 85.6 °F 67.6 °F 29.97 in NNE 5.0 mph 5.0 mph 55% 0.00 in FEW
11:45 85.4 °F 67.4 °F 29.97 in NNE 5.0 mph 5.0 mph 55% 0.00 in FEW
11:50 84.9 °F 66.9 °F 29.97 in NNE 5.0 mph 5.0 mph 55% 0.00 in FEW
11:55 85.5 °F 65.9 °F 29.96 in NNE 5.0 mph 5.0 mph 52% 0.00 in FEW
12:00 86.8 °F 67.1 °F 29.96 in NNE 5.0 mph 5.0 mph 52% 0.00 in FEW
12:05 87.5 °F 68.2 °F 29.96 in NNE 5.0 mph 5.0 mph 53% 0.00 in FEW
12:10 87.6 °F 66.6 °F 29.96 in NNE 5.0 mph 5.0 mph 50% 0.00 in FEW
12:15 87.5 °F 67.7 °F 29.96 in NNE 5.0 mph 5.0 mph 52% 0.00 in FEW
12:20 87.8 °F 67.4 °F 29.96 in NNE 5.0 mph 5.0 mph 51% 0.00 in FEW
12:25 88.1 °F 67.7 °F 29.96 in NNE 5.0 mph 5.0 mph 51% 0.00 in FEW
12:30 88.1 °F 67.7 °F 29.96 in NNE 5.0 mph 5.0 mph 51% 0.00 in FEW
12:40 88.5 °F 66.9 °F 29.96 in NNE 5.0 mph 5.0 mph 49% 0.00 in FEW
12:45 88.9 °F 66.7 °F 29.96 in NNE 5.0 mph 5.0 mph 48% 0.00 in FEW
12:50 89.3 °F 66.4 °F 29.95 in NNE 5.0 mph 5.0 mph 47% 0.00 in FEW
12:55 89.4 °F 65.9 °F 29.95 in NNE 5.0 mph 5.0 mph 46% 0.00 in FEW
13:00 88.4 °F 66.8 °F 29.95 in NNE 5.0 mph 5.0 mph 49% 0.00 in FEW
13:05 87.8 °F 66.3 °F 29.95 in NNE 5.0 mph 5.0 mph 49% 0.00 in FEW
13:10 87.4 °F 65.9 °F 29.95 in NNE 5.0 mph 5.0 mph 49% 0.00 in FEW
13:15 87.0 °F 66.7 °F 29.95 in NNE 5.0 mph 5.0 mph 51% 0.00 in FEW
13:20 87.2 °F 66.8 °F 29.95 in NNE 5.0 mph 5.0 mph 51% 0.00 in FEW
13:25 87.1 °F 66.2 °F 29.95 in NNE 5.0 mph 5.0 mph 50% 0.00 in FEW
13:30 87.0 °F 65.5 °F 29.94 in NNE 5.0 mph 5.0 mph 49% 0.00 in FEW
13:35 86.8 °F 65.4 °F 29.94 in NNE 5.0 mph 5.0 mph 49% 0.00 in FEW
13:40 87.0 °F 66.6 °F 29.94 in NNE 5.0 mph 5.0 mph 51% 0.00 in FEW
13:45 86.9 °F 65.4 °F 29.94 in NNE 5.0 mph 5.0 mph 49% 0.00 in FEW
13:50 87.2 °F 65.7 °F 29.94 in NNE 5.0 mph 5.0 mph 49% 0.00 in FEW
13:55 87.6 °F 65.4 °F 29.94 in North 2.0 mph 5.0 mph 48% 0.00 in FEW
14:00 88.9 °F 66.6 °F 29.93 in NNW 2.0 mph 2.0 mph 48% 0.00 in FEW
14:05 90.0 °F 67.1 °F 29.93 in NNW 2.0 mph 2.0 mph 47% 0.00 in FEW
14:10 90.9 °F 65.3 °F 29.93 in NNW 2.0 mph 2.0 mph 43% 0.00 in FEW
14:15 90.2 °F 66.0 °F 29.93 in NNE 6.0 mph 6.0 mph 45% 0.00 in FEW
14:20 90.1 °F 65.2 °F 29.93 in NNE 6.0 mph 6.0 mph 44% 0.00 in FEW
14:25 89.7 °F 64.2 °F 29.93 in NNE 6.0 mph 6.0 mph 43% 0.00 in FEW
14:30 88.8 °F 64.7 °F 29.92 in NNE 6.0 mph 6.0 mph 45% 0.00 in FEW
14:35 88.0 °F 67.0 °F 29.92 in NNE 6.0 mph 6.0 mph 50% 0.00 in FEW
14:40 87.1 °F 66.2 °F 29.92 in NNE 6.0 mph 6.0 mph 50% 0.00 in FEW
14:45 86.2 °F 67.1 °F 29.92 in NNE 6.0 mph 6.0 mph 53% 0.00 in FEW
14:50 85.8 °F 67.2 °F 29.92 in NNE 6.0 mph 6.0 mph 54% 0.00 in FEW
14:55 86.4 °F 66.7 °F 29.92 in NNE 6.0 mph 6.0 mph 52% 0.00 in FEW
15:00 87.3 °F 68.1 °F 29.92 in NNE 6.0 mph 6.0 mph 53% 0.00 in FEW
15:05 87.9 °F 68.1 °F 29.91 in NNE 6.0 mph 6.0 mph 52% 0.00 in FEW
15:10 88.3 °F 66.1 °F 29.91 in NNE 6.0 mph 6.0 mph 48% 0.00 in FEW
15:15 88.2 °F 66.0 °F 29.91 in NNE 6.0 mph 6.0 mph 48% 0.00 in FEW
15:20 88.1 °F 66.5 °F 29.91 in NNE 6.0 mph 6.0 mph 49% 0.00 in FEW
15:25 88.1 °F 66.5 °F 29.91 in NNE 6.0 mph 6.0 mph 49% 0.00 in FEW
15:30 88.3 °F 68.4 °F 29.91 in NNE 6.0 mph 6.0 mph 52% 0.00 in FEW
15:40 87.7 °F 65.6 °F 29.91 in NNE 6.0 mph 6.0 mph 48% 0.00 in FEW
15:45 87.6 °F 65.5 °F 29.91 in North 6.0 mph 6.0 mph 48% 0.00 in SCT
15:50 87.4 °F 65.3 °F 29.91 in NNW 6.0 mph 6.0 mph 48% 0.00 in SCT
15:55 87.4 °F 65.3 °F 29.91 in NNW 6.0 mph 6.0 mph 48% 0.00 in SCT
16:00 87.4 °F 64.7 °F 29.90 in NNW 6.0 mph 6.0 mph 47% 0.00 in SCT
16:05 87.3 °F 65.2 °F 29.90 in NNW 6.0 mph 6.0 mph 48% 0.00 in SCT
16:10 87.1 °F 65.6 °F 29.90 in NNW 6.0 mph 6.0 mph 49% 0.00 in SCT
16:15 87.0 °F 66.1 °F 29.90 in NNW 6.0 mph 6.0 mph 50% 0.00 in SCT
16:20 86.9 °F 65.4 °F 29.90 in NNW 6.0 mph 6.0 mph 49% 0.00 in SCT
16:25 87.2 °F 65.7 °F 29.90 in NW 3.0 mph 6.0 mph 49% 0.00 in FEW
16:30 87.7 °F 66.7 °F 29.90 in NW 3.0 mph 3.0 mph 50% 0.00 in FEW
16:40 87.5 °F 65.4 °F 29.90 in NW 3.0 mph 3.0 mph 48% 0.00 in FEW
16:45 87.3 °F 64.0 °F 29.90 in NW 3.0 mph 3.0 mph 46% 0.00 in FEW
16:50 87.3 °F 64.0 °F 29.90 in NW 3.0 mph 3.0 mph 46% 0.00 in FEW
16:55 87.1 °F 65.6 °F 29.91 in NW 3.0 mph 3.0 mph 49% 0.00 in FEW
17:00 86.7 °F 66.4 °F 29.91 in NW 3.0 mph 3.0 mph 51% 0.00 in FEW
17:05 86.3 °F 67.2 °F 29.90 in NW 3.0 mph 3.0 mph 53% 0.00 in FEW
17:10 85.7 °F 67.7 °F 29.90 in NW 3.0 mph 3.0 mph 55% 0.00 in FEW
17:15 85.4 °F 67.9 °F 29.90 in NW 3.0 mph 3.0 mph 56% 0.00 in FEW
17:20 85.1 °F 68.7 °F 29.90 in NW 3.0 mph 3.0 mph 58% 0.00 in FEW
17:25 84.7 °F 68.8 °F 29.90 in NW 3.0 mph 3.0 mph 59% 0.00 in FEW
17:30 84.6 °F 67.7 °F 29.90 in NW 3.0 mph 3.0 mph 57% 0.00 in FEW
17:35 84.6 °F 67.7 °F 29.90 in NW 3.0 mph 3.0 mph 57% 0.00 in FEW
17:40 84.7 °F 68.3 °F 29.91 in NW 3.0 mph 3.0 mph 58% 0.00 in FEW
17:45 84.6 °F 68.2 °F 29.91 in NW 3.0 mph 3.0 mph 58% 0.00 in FEW
17:50 84.5 °F 68.6 °F 29.91 in NW 3.0 mph 3.0 mph 59% 0.00 in FEW
17:55 84.3 °F 66.9 °F 29.91 in West 7.0 mph 7.0 mph 56% 0.00 in FEW
18:00 84.2 °F 66.8 °F 29.91 in West 7.0 mph 7.0 mph 56% 0.00 in FEW
18:05 84.0 °F 66.1 °F 29.91 in West 7.0 mph 7.0 mph 55% 0.00 in FEW
18:10 83.9 °F 66.5 °F 29.91 in West 7.0 mph 7.0 mph 56% 0.00 in FEW
18:15 83.7 °F 66.3 °F 29.91 in NW 7.0 mph 7.0 mph 56% 0.00 in FEW
18:20 83.7 °F 67.3 °F 29.91 in NNW 7.0 mph 7.0 mph 58% 0.00 in FEW
18:25 83.6 °F 66.8 °F 29.91 in NNW 7.0 mph 7.0 mph 57% 0.00 in FEW
18:30 83.5 °F 66.7 °F 29.91 in NNW 7.0 mph 7.0 mph 57% 0.00 in FEW
18:35 83.3 °F 66.0 °F 29.91 in NNW 7.0 mph 7.0 mph 56% 0.00 in FEW
18:40 83.2 °F 66.9 °F 29.91 in NNW 7.0 mph 7.0 mph 58% 0.00 in FEW
18:45 83.0 °F 66.2 °F 29.91 in NNW 7.0 mph 7.0 mph 57% 0.00 in FEW
18:50 82.8 °F 66.5 °F 29.91 in NNW 7.0 mph 7.0 mph 58% 0.00 in FEW
18:55 82.5 °F 66.7 °F 29.91 in NNW 7.0 mph 7.0 mph 59% 0.00 in FEW
19:00 82.1 °F 66.9 °F 29.91 in NNW 7.0 mph 7.0 mph 60% 0.00 in FEW
19:05 81.8 °F 67.0 °F 29.91 in NNW 7.0 mph 7.0 mph 61% 0.00 in FEW
19:10 81.4 °F 67.1 °F 29.91 in NNW 7.0 mph 7.0 mph 62% 0.00 in FEW
19:15 80.7 °F 67.0 °F 29.91 in NW 8.0 mph 8.0 mph 63% 0.00 in FEW
19:20 80.1 °F 67.3 °F 29.91 in NW 8.0 mph 8.0 mph 65% 0.00 in FEW
19:25 79.6 °F 67.2 °F 29.91 in NW 8.0 mph 8.0 mph 66% 0.00 in FEW
19:30 79.2 °F 66.9 °F 29.91 in NW 8.0 mph 8.0 mph 66% 0.00 in FEW
19:35 78.9 °F 67.0 °F 29.91 in NW 8.0 mph 8.0 mph 67% 0.00 in FEW
19:40 78.6 °F 66.7 °F 29.91 in NW 8.0 mph 8.0 mph 67% 0.00 in FEW
19:45 78.4 °F 66.9 °F 29.91 in NW 8.0 mph 8.0 mph 68% 0.00 in FEW
19:50 78.1 °F 66.6 °F 29.91 in NW 8.0 mph 8.0 mph 68% 0.00 in FEW
19:55 77.8 °F 66.4 °F 29.91 in NW 8.0 mph 8.0 mph 68% 0.00 in FEW
20:00 77.6 °F 66.6 °F 29.91 in NW 8.0 mph 8.0 mph 69% 0.00 in FEW
20:05 77.4 °F 66.0 °F 29.92 in NW 8.0 mph 8.0 mph 68% 0.00 in FEW
20:10 77.2 °F 66.2 °F 29.92 in NW 8.0 mph 8.0 mph 69% 0.00 in FEW
20:15 77.1 °F 66.6 °F 29.92 in NW 3.0 mph 8.0 mph 70% 0.00 in FEW
20:20 76.9 °F 66.4 °F 29.92 in WNW 3.0 mph 3.0 mph 70% 0.00 in FEW
20:25 76.8 °F 66.3 °F 29.92 in WNW 3.0 mph 3.0 mph 70% 0.00 in FEW
20:30 76.6 °F 66.5 °F 29.92 in WNW 3.0 mph 3.0 mph 71% 0.00 in FEW
20:35 76.4 °F 66.3 °F 29.92 in WNW 3.0 mph 3.0 mph 71% 0.00 in FEW
20:40 76.3 °F 66.6 °F 29.92 in WNW 3.0 mph 3.0 mph 72% 0.00 in FEW
20:45 76.1 °F 66.4 °F 29.93 in WNW 3.0 mph 3.0 mph 72% 0.00 in FEW
20:50 76.0 °F 66.7 °F 29.93 in WNW 3.0 mph 3.0 mph 73% 0.00 in FEW
20:55 75.9 °F 66.6 °F 29.93 in WNW 3.0 mph 3.0 mph 73% 0.00 in FEW
21:00 75.8 °F 66.5 °F 29.93 in WNW 3.0 mph 3.0 mph 73% 0.00 in FEW
21:05 75.7 °F 66.4 °F 29.93 in WNW 3.0 mph 3.0 mph 73% 0.00 in FEW
21:10 75.6 °F 66.4 °F 29.94 in WNW 3.0 mph 3.0 mph 73% 0.00 in FEW
21:15 75.6 °F 66.7 °F 29.94 in NW 7.0 mph 7.0 mph 74% 0.00 in FEW
21:20 75.5 °F 66.6 °F 29.94 in NW 7.0 mph 7.0 mph 74% 0.00 in FEW
21:25 75.3 °F 66.4 °F 29.94 in NW 7.0 mph 7.0 mph 74% 0.00 in FEW
21:30 75.2 °F 66.7 °F 29.94 in NW 7.0 mph 7.0 mph 75% 0.00 in FEW
21:35 75.1 °F 66.6 °F 29.94 in NW 7.0 mph 7.0 mph 75% 0.00 in FEW
21:40 75.0 °F 66.5 °F 29.95 in NW 7.0 mph 7.0 mph 75% 0.00 in FEW
21:45 74.9 °F 66.8 °F 29.95 in NW 7.0 mph 7.0 mph 76% 0.00 in FEW
21:50 74.8 °F 66.7 °F 29.95 in NW 7.0 mph 7.0 mph 76% 0.00 in FEW
21:55 74.6 °F 66.5 °F 29.95 in NW 7.0 mph 7.0 mph 76% 0.00 in FEW
22:00 74.4 °F 66.7 °F 29.95 in NW 7.0 mph 7.0 mph 77% 0.00 in FEW
22:05 74.4 °F 66.7 °F 29.95 in NW 7.0 mph 7.0 mph 77% 0.00 in FEW
22:10 74.2 °F 66.5 °F 29.95 in NW 7.0 mph 7.0 mph 77% 0.00 in FEW
22:15 74.1 °F 66.8 °F 29.95 in NW 7.0 mph 7.0 mph 78% 0.00 in CLR
22:20 74.0 °F 66.7 °F 29.95 in NW 7.0 mph 7.0 mph 78% 0.00 in CLR
22:25 74.0 °F 66.7 °F 29.95 in NW 7.0 mph 7.0 mph 78% 0.00 in CLR
22:30 73.9 °F 66.6 °F 29.95 in NW 7.0 mph 7.0 mph 78% 0.00 in CLR
22:35 73.8 °F 66.5 °F 29.96 in NW 7.0 mph 7.0 mph 78% 0.00 in CLR
22:40 73.8 °F 66.9 °F 29.96 in NW 7.0 mph 7.0 mph 79% 0.00 in CLR
22:45 73.7 °F 66.8 °F 29.96 in NW 7.0 mph 7.0 mph 79% 0.00 in CLR
22:50 73.7 °F 66.8 °F 29.96 in NW 7.0 mph 7.0 mph 79% 0.00 in CLR
22:55 73.5 °F 66.6 °F 29.96 in NW 7.0 mph 7.0 mph 79% 0.00 in CLR
23:00 73.4 °F 66.5 °F 29.96 in NW 7.0 mph 7.0 mph 79% 0.00 in CLR
23:05 73.3 °F 66.8 °F 29.96 in NW 7.0 mph 7.0 mph 80% 0.00 in CLR
23:10 73.2 °F 66.7 °F 29.96 in NW 7.0 mph 7.0 mph 80% 0.00 in CLR
23:25 72.9 °F 66.7 °F 29.96 in NW 6.0 mph 6.0 mph 81% 0.00 in CLR
23:30 72.7 °F 66.6 °F 29.96 in NW 6.0 mph 6.0 mph 81% 0.00 in CLR
23:35 72.6 °F 66.5 °F 29.96 in NW 6.0 mph 6.0 mph 81% 0.00 in CLR
23:40 72.6 °F 66.4 °F 29.96 in NW 6.0 mph 6.0 mph 81% 0.00 in CLR
23:45 72.4 °F 66.6 °F 29.96 in NW 6.0 mph 6.0 mph 82% 0.00 in CLR
23:50 72.4 °F 66.6 °F 29.96 in NW 6.0 mph 6.0 mph 82% 0.00 in CLR
23:55 72.4 °F 66.6 °F 29.96 in NW 6.0 mph 6.0 mph 82% 0.00 in CLR
Piedmont Bend
Compliments of Weather Underground - 4 mb